TimeEDT,TemperatureF,Dew PointF,Humidity,Sea Level PressureIn,VisibilityMPH,Wind Direction,Wind SpeedMPH,Gust SpeedMPH,PrecipitationIn,Events,Conditions,WindDirDegrees,DateUTC
12:14 AM,46.6,44.1,91,29.79,5.0,South,4.6,-,N/A,,Overcast,170,2012-10-14 04:14:00
12:35 AM,46.8,44.2,91,29.78,7.0,South,5.8,-,N/A,,Overcast,170,2012-10-14 04:35:00
1:14 AM,47.5,45.0,91,29.77,10.0,South,5.8,-,N/A,,Overcast,180,2012-10-14 05:14:00
1:35 AM,47.7,45.1,91,29.77,10.0,SSW,6.9,-,N/A,,Overcast,200,2012-10-14 05:35:00
1:54 AM,47.8,45.5,92,29.79,10.0,SSW,5.8,-,N/A,,Overcast,200,2012-10-14 05:54:00
2:14 AM,48.2,45.7,91,29.79,7.0,SSW,3.5,-,N/A,,Overcast,200,2012-10-14 06:14:00
2:35 AM,48.2,45.7,91,29.78,7.0,South,4.6,-,N/A,,Overcast,190,2012-10-14 06:35:00
2:54 AM,48.2,45.7,91,29.79,7.0,SSW,3.5,-,N/A,,Overcast,210,2012-10-14 06:54:00
3:14 AM,48.4,45.9,91,29.79,10.0,SSW,4.6,-,N/A,,Overcast,210,2012-10-14 07:14:00
3:35 AM,48.4,45.9,91,29.77,7.0,Calm,Calm,-,N/A,,Overcast,0,2012-10-14 07:35:00
3:54 AM,48.4,45.9,91,29.78,5.0,SSW,3.5,-,N/A,,Overcast,200,2012-10-14 07:54:00
4:15 AM,48.7,46.2,91,29.78,3.0,Calm,Calm,-,N/A,,Overcast,0,2012-10-14 08:15:00
4:35 AM,49.3,46.6,90,29.79,2.0,Calm,Calm,-,N/A,,Overcast,0,2012-10-14 08:35:00
4:54 AM,48.6,45.9,90,29.79,1.2,Calm,Calm,-,N/A,,Overcast,0,2012-10-14 08:54:00
5:15 AM,48.6,45.9,90,29.78,0.8,Calm,Calm,-,N/A,,Overcast,0,2012-10-14 09:15:00
5:34 AM,48.4,45.9,91,29.77,0.8,Calm,Calm,-,N/A,,Overcast,0,2012-10-14 09:34:00
5:54 AM,48.2,45.9,92,29.77,1.0,South,3.5,-,N/A,,Overcast,170,2012-10-14 09:54:00
6:15 AM,49.1,46.6,91,29.77,2.5,Calm,Calm,-,N/A,,Overcast,0,2012-10-14 10:15:00
6:34 AM,48.6,46.4,92,29.77,3.0,Calm,Calm,-,N/A,,Overcast,0,2012-10-14 10:34:00
6:54 AM,48.7,46.4,92,29.77,4.0,SSE,4.6,-,N/A,,Overcast,150,2012-10-14 10:54:00
7:14 AM,48.4,46.0,92,29.76,1.5,Calm,Calm,-,N/A,,Overcast,0,2012-10-14 11:14:00
7:34 AM,48.6,46.4,92,29.76,1.5,Calm,Calm,-,N/A,,Overcast,0,2012-10-14 11:34:00
7:54 AM,48.7,46.4,92,29.76,3.0,Calm,Calm,-,N/A,,Overcast,0,2012-10-14 11:54:00
8:14 AM,48.4,46.4,93,29.77,3.0,Calm,Calm,-,N/A,,Overcast,0,2012-10-14 12:14:00
8:35 AM,48.7,46.6,92,29.76,3.0,Calm,Calm,-,N/A,Rain,Rain,0,2012-10-14 12:35:00
8:54 AM,48.7,46.6,92,29.75,1.2,East,3.5,-,N/A,Rain,Light Rain,80,2012-10-14 12:54:00
9:14 AM,49.3,47.1,92,29.74,1.2,Calm,Calm,-,N/A,Rain,Light Rain,0,2012-10-14 13:14:00
9:35 AM,49.6,47.5,92,29.73,1.2,Calm,Calm,-,N/A,Rain,Rain,0,2012-10-14 13:35:00
9:54 AM,50.0,47.7,92,29.72,2.5,ESE,4.6,-,N/A,Rain,Rain,110,2012-10-14 13:54:00
10:15 AM,50.0,47.7,92,29.71,2.5,ESE,4.6,-,N/A,Rain,Rain,120,2012-10-14 14:15:00
10:35 AM,50.7,48.6,92,29.69,3.0,East,9.2,-,N/A,Rain,Rain,100,2012-10-14 14:35:00
10:54 AM,51.1,48.9,92,29.68,2.0,East,8.1,-,N/A,Rain,Heavy Rain,100,2012-10-14 14:54:00
11:15 AM,51.3,49.1,92,29.66,2.5,East,4.6,-,N/A,Rain,Heavy Rain,100,2012-10-14 15:15:00
11:34 AM,51.8,49.3,91,29.64,4.0,ESE,11.5,-,N/A,Rain,Light Rain,110,2012-10-14 15:34:00
11:54 AM,52.0,49.6,92,29.62,5.0,ESE,13.8,19.6,N/A,Rain,Light Rain,110,2012-10-14 15:54:00
12:15 PM,52.0,49.6,92,29.60,5.0,ESE,15.0,19.6,N/A,Rain,Rain,110,2012-10-14 16:15:00
12:34 PM,52.0,49.6,92,29.58,7.0,ESE,12.7,21.9,N/A,Rain,Light Rain,110,2012-10-14 16:34:00
12:54 PM,52.2,50.0,92,29.56,5.0,ESE,11.5,19.6,N/A,Rain,Light Rain,110,2012-10-14 16:54:00
1:15 PM,52.7,50.2,91,29.55,3.0,ESE,12.7,-,N/A,Rain,Rain,110,2012-10-14 17:15:00
1:34 PM,52.7,50.4,92,29.52,4.0,ESE,12.7,17.3,N/A,Rain,Rain,110,2012-10-14 17:34:00
1:55 PM,52.9,50.7,92,29.50,2.0,South,6.9,-,N/A,Rain,Heavy Rain,170,2012-10-14 17:55:00
2:14 PM,53.1,50.9,92,29.49,2.5,SSE,10.4,16.1,N/A,Rain,Heavy Rain,160,2012-10-14 18:14:00
2:35 PM,53.2,50.9,92,29.46,2.5,SE,11.5,20.7,N/A,Rain,Light Rain,130,2012-10-14 18:35:00
2:55 PM,54.0,51.6,92,29.44,3.0,ESE,5.8,-,N/A,Rain,Rain,120,2012-10-14 18:55:00
3:14 PM,54.7,52.3,92,29.43,5.0,South,3.5,-,N/A,Rain,Light Rain,170,2012-10-14 19:14:00
3:35 PM,55.0,52.7,92,29.41,10.0,Calm,Calm,-,N/A,,Overcast,0,2012-10-14 19:35:00
3:54 PM,56.7,54.5,92,29.40,10.0,Calm,Calm,-,N/A,,Overcast,0,2012-10-14 19:54:00
4:14 PM,59.0,56.3,91,29.39,10.0,Calm,Calm,-,N/A,,Overcast,0,2012-10-14 20:14:00
4:35 PM,55.8,53.1,91,29.38,7.0,Calm,Calm,-,N/A,,Overcast,0,2012-10-14 20:35:00
4:54 PM,55.4,52.7,91,29.37,4.0,Calm,Calm,-,N/A,,Overcast,0,2012-10-14 20:54:00
5:14 PM,56.3,53.8,91,29.37,5.0,NW,4.6,-,N/A,,Overcast,310,2012-10-14 21:14:00
5:34 PM,55.8,53.2,91,29.37,5.0,Calm,Calm,-,N/A,,Overcast,0,2012-10-14 21:34:00
5:54 PM,55.0,52.3,91,29.36,0.8,Calm,Calm,-,N/A,,Overcast,0,2012-10-14 21:54:00
6:15 PM,54.5,52.0,91,29.35,0.2,Calm,Calm,-,N/A,Fog,Fog,0,2012-10-14 22:15:00
6:34 PM,54.7,52.3,92,29.35,0.5,Calm,Calm,-,N/A,Rain,Light Rain,0,2012-10-14 22:34:00
6:54 PM,54.0,51.8,92,29.34,0.5,Calm,Calm,-,N/A,Rain,Rain,0,2012-10-14 22:54:00
7:15 PM,53.8,51.6,92,29.32,1.0,Calm,Calm,-,N/A,Rain,Light Rain,0,2012-10-14 23:15:00
7:34 PM,53.6,51.3,92,29.32,0.8,Calm,Calm,-,N/A,Rain,Light Rain,0,2012-10-14 23:34:00
7:55 PM,53.8,51.4,92,29.32,0.8,West,3.5,-,N/A,Rain,Light Rain,260,2012-10-14 23:55:00
8:14 PM,54.5,52.0,91,29.31,5.0,Calm,Calm,-,N/A,,Overcast,0,2012-10-15 00:14:00
8:34 PM,53.8,51.4,92,29.30,3.0,Calm,Calm,-,N/A,,Mostly Cloudy,0,2012-10-15 00:34:00
8:55 PM,59.4,57.2,93,29.30,10.0,South,6.9,-,N/A,,Scattered Clouds,180,2012-10-15 00:55:00
9:14 PM,60.1,57.4,91,29.29,10.0,South,8.1,-,N/A,,Scattered Clouds,180,2012-10-15 01:14:00
9:34 PM,60.3,57.0,89,29.28,10.0,South,4.6,-,N/A,,Mostly Cloudy,170,2012-10-15 01:34:00
9:55 PM,59.9,56.3,88,29.27,10.0,South,4.6,-,N/A,,Mostly Cloudy,170,2012-10-15 01:55:00
10:14 PM,56.1,51.6,85,29.27,5.0,Calm,Calm,-,N/A,,Overcast,0,2012-10-15 02:14:00
10:35 PM,53.6,50.7,90,29.27,5.0,WNW,5.8,-,N/A,,Overcast,300,2012-10-15 02:35:00
10:54 PM,52.5,49.8,91,29.28,4.0,West,8.1,-,N/A,Rain,Light Rain,270,2012-10-15 02:54:00
11:15 PM,51.8,49.1,90,29.27,10.0,WNW,5.8,-,N/A,,Overcast,300,2012-10-15 03:15:00
11:34 PM,51.1,48.4,90,29.27,10.0,NW,5.8,-,N/A,,Overcast,310,2012-10-15 03:34:00
11:55 PM,50.4,47.8,91,29.27,7.0,WNW,4.6,-,N/A,,Overcast,300,2012-10-15 03:55:00